Battle Creek, MI

9:33 PM EDT on October 13, 2019 (GMT -0400)
Kellogg

Weather History for KBTL - July, 2019

Change the Weather History Date:

Friday, July 12, 2019

  Actual Average Record
Temperature  
Mean Temperature 68 °F 71 °F  
Max Temperature 81 °F 83 °F 91 °F (2005)
Min Temperature 55 °F 59 °F 53 °F (1999)
Degree Days  
Heating Degree Days 0 0  
Month to date heating degree days 0 6  
Since 1 June heating degree days 46 63  
Since 1 July heating degree days 0 6  
Cooling Degree Days 3 7  
Month to date cooling degree days 134 80  
Year to date cooling degree days 275 244  
Since 1 June cooling degree days 259 206  
Growing Degree Days 18 (Base 50)    
Moisture  
Dew Point 57 °F    
Average Humidity 69    
Maximum Humidity 93    
Minimum Humidity 45    
Precipitation  
Precipitation 0.00 in 0.10 in 0.52 in (2005)
Month to date precipitation 1.07 1.28  
Year to date precipitation 19.36 15.99  
Sea Level Pressure  
Sea Level Pressure 29.96 in    
Wind  
Wind Speed 4 mph (NW)    
Max Wind Speed 12 mph    
Max Gust Speed 16 mph    
Visibility 10 miles    
Events      
T = Trace of Precipitation, MM = Missing Value Source: NWS Daily Summary

Daily Weather History Graph

Daily Weather History Graph

Search for Another Location

Airport or City:

Astronomy

Jul. 12, 2019 Rise Set
Actual Time 6:15 AM EDT 9:17 PM EDT
Civil Twilight 5:41 AM EDT 9:51 PM EDT
Nautical Twilight 4:58 AM EDT 10:34 PM EDT
Astronomical Twilight 4:06 AM EDT 11:25 PM EDT
Moon 5:34 PM EDT (7/12) 3:00 AM EDT (7/12)
Length of Visible Light 16h 10m
Length of Day
15h 02m
Waxing Gibbous, 82% of the Moon is Illuminated
Jul 12
Waxing Gibbous
Jul 16
Full
Jul 24
Last Quarter
Jul 31
New
Aug 7
First Quarter

Hourly Weather History & Observations

Time (EDT) Temp. Heat Index Dew Point Humidity Pressure Visibility Wind Dir Wind Speed Gust Speed Precip Events Conditions
12:53 AM 62.1 °F - 57.0 °F 84% 29.93 in 10.0 mi North 5.8 mph - N/A   Clear
1:53 AM 60.1 °F - 57.0 °F 90% 29.93 in 10.0 mi NNW 6.9 mph - N/A   Clear
2:53 AM 59.0 °F - 55.9 °F 90% 29.92 in 10.0 mi North 4.6 mph - N/A   Clear
3:53 AM 57.9 °F - 55.9 °F 93% 29.92 in 10.0 mi Calm Calm - N/A   Clear
4:53 AM 57.0 °F - 55.0 °F 93% 29.93 in 10.0 mi NNW 3.5 mph - N/A   Clear
5:53 AM 55.9 °F - 54.0 °F 93% 29.95 in 10.0 mi NNW 3.5 mph - N/A   Clear
6:53 AM 57.0 °F - 55.0 °F 93% 29.96 in 10.0 mi WNW 3.5 mph - N/A   Clear
7:53 AM 59.0 °F - 55.9 °F 90% 29.98 in 10.0 mi NNW 5.8 mph - N/A   Clear
8:53 AM 63.0 °F - 55.9 °F 78% 29.99 in 10.0 mi North 5.8 mph - N/A   Clear
8:56 AM 63.0 °F - 55.9 °F 78% 30.00 in 10.0 mi North 6.9 mph - N/A   Scattered Clouds
9:12 AM 63.0 °F - 55.9 °F 78% 30.01 in 10.0 mi NNW 8.1 mph - N/A   Mostly Cloudy
9:53 AM 66.0 °F - 57.0 °F 73% 30.00 in 10.0 mi Variable 6.9 mph - N/A   Mostly Cloudy
10:46 AM 68.0 °F - 57.9 °F 70% 30.00 in 10.0 mi Variable 5.8 mph - N/A   Mostly Cloudy
10:53 AM 69.1 °F - 57.9 °F 68% 29.99 in 10.0 mi North 8.1 mph - N/A   Mostly Cloudy
11:53 AM 70.0 °F - 59.0 °F 68% 29.99 in 10.0 mi Variable 5.8 mph - N/A   Scattered Clouds
12:53 PM 73.0 °F - 60.1 °F 64% 29.99 in 10.0 mi NNE 5.8 mph - N/A   Scattered Clouds
1:53 PM 75.9 °F - 61.0 °F 60% 29.99 in 10.0 mi Variable 4.6 mph - N/A   Clear
2:53 PM 78.1 °F - 60.1 °F 54% 29.97 in 10.0 mi Variable 5.8 mph - N/A   Clear
3:53 PM 80.1 °F 80.6 °F 57.9 °F 47% 29.96 in 10.0 mi Variable 5.8 mph - N/A   Clear
4:53 PM 79.0 °F - 57.9 °F 48% 29.95 in 10.0 mi Variable 4.6 mph - N/A   Clear
5:53 PM 80.1 °F 80.4 °F 57.0 °F 45% 29.95 in 10.0 mi West 8.1 mph - N/A   Clear
6:53 PM 80.1 °F 80.4 °F 57.0 °F 45% 29.95 in 10.0 mi West 6.9 mph - N/A   Clear
7:53 PM 78.1 °F - 59.0 °F 52% 29.94 in 10.0 mi WNW 6.9 mph - N/A   Clear
8:53 PM 73.0 °F - 57.9 °F 59% 29.94 in 10.0 mi West 6.9 mph - N/A   Clear
9:53 PM 68.0 °F - 59.0 °F 73% 29.95 in 10.0 mi SW 4.6 mph - N/A   Clear
10:53 PM 64.0 °F - 59.0 °F 84% 29.95 in 10.0 mi WSW 4.6 mph - N/A   Clear
11:53 PM 64.9 °F - 57.9 °F 78% 29.95 in 10.0 mi Calm Calm - N/A   Clear